Powrót do katalogu

NOAA 16 DEB

AktywnyPO
NORAD 41072·DEBRIS·🇺🇸 United States

Wystrzelony Sep 21, 2000 z Vandenberg Space Force Base

Loading…

Następne Przeloty (najbliższe 24 godziny)

TLE

ŚwieżeSource: Space-Track

Epoka: Sep 14, 2026, 02:49 UTC

1 41072U 00055AF  26257.11740652  .00000292  00000-0  37375-3 0  9993
2 41072  98.8269 314.8418 0283153 248.3279 108.7490 13.54831526533439

Śledź NOAA 16 DEB w czasie rzeczywistym z AllMySat

Download on the App Store